"Pseudo-MPEC" for C2F4CZ2

Created 2020 Mar 28 5:07:09 UT using Find_Orb

Click here for an explanation of pseudo-MPECs

 
 Astrometry: 
     C2F4CZ2  C2020 03 25.45982 16 41 55.40 +12 51 32.4    ~3PBq 21.0 GVNEOCPG96
     C2F4CZ2  C2020 03 25.46497 16 41 56.34 +12 51 30.7    ~3PBq 20.7 GVNEOCPG96
     C2F4CZ2  C2020 03 25.47012 16 41 57.25 +12 51 28.9    ~3PBq 21.0 GVNEOCPG96
     C2F4CZ2  C2020 03 25.47526 16 41 58.19 +12 51 27.0    ~3PBq 21.1 GVNEOCPG96
     C2F4CZ2  C2020 03 25.51201 16 42 04.87 +12 51 13.3    ~3PCq       VNEOCPG96
     C2F4CZ2  C2020 03 25.51740 16 42 05.81 +12 51 11.5    ~3PCq 21.0 GVNEOCPG96
     C2F4CZ2  C2020 03 26.02198 16 43 40.88 +12 47 59.5    ~3Q2b 21.1 VVNEOCP033
     C2F4CZ2  C2020 03 26.02556 16 43 41.54 +12 47 57.6    ~3Q2b 20.4 VVNEOCP033
     C2F4CZ2  C2020 03 26.02914 16 43 42.20 +12 47 56.6    ~3Q2b 20.6 VVNEOCP033
     C2F4CZ2 KC2020 03 26f.g5+0uywgMW3_q*P$\727)Y^#8Ai%O_FejV`iS'pd:U6D+:gRfYJ04
     C2F4CZ2 KC2020 03 265yq888'qhf=S1MmTZNKDhZf2O@S[`fJ`^bRvCIc@KtmrOMFKhZ`.J04
     C2F4CZ2 KC2020 03 26liNJift)J6Astrometry[!Y^sB$EqK=FRredacted;dW,Z=;',C'H21
     C2F4CZ2 KC2020 03 2602m^;rtPMS4FPlkclickGqcG#M![35RN9rwI^k.=\*j6s6@?\A7EH21
     C2F4CZ2 KC2020 03 26BnLCO_2\4Ou`xDq`xhC)X3VhereISu_tf*p[0mdo%F].uw5tB`4@H21
     C2F4CZ2  C2020 03 27.02542 16 46 49.03 +12 41 27.4    ~3R2b 23.0 VVNEOCP033
     C2F4CZ2  C2020 03 27.03119 16 46 50.13 +12 41 23.9    ~3R2b 24.0 VVNEOCP033
     C2F4CZ2  C2020 03 27.03420 16 46 50.55 +12 41 24.3    ~3R2b 22.9 VVNEOCP033
     C2F4CZ2  C2020 03 27.03729 16 46 51.18 +12 41 22.3    ~3R2b 23.1 VVNEOCP033
     C2F4CZ2 KC2020 03 27.05167 16 46 53.96 +12 41 18.6    ~3R27 20.3 VqNEOCPI93
     C2F4CZ2 KC2020 03 27.06142 16 46 55.79 +12 41 15.1    ~3R27 20.1 VqNEOCPI93
     C2F4CZ2 KC2020 03 27.07222 16 46 57.72 +12 41 10.6    ~3R27 20.3 VqNEOCPI93
     C2F4CZ2 KC2020 03 27.07313116 46 57.86 +12 41 09.1    ~3R57 20.8 GVNEOCPJ95
     C2F4CZ2 KC2020 03 27.09576016 47 02.02 +12 40 59.3    ~3R57 21.1 GVNEOCPJ95
     C2F4CZ2  C2020 03 27.49309 16 48 16.24 +12 38 21.8    ~3RC7 20.7 GVNEOCPI52
     C2F4CZ2  C2020 03 27.49435 16 48 16.48 +12 38 21.0    ~3RC7 20.6 GVNEOCPI52
     C2F4CZ2  C2020 03 27.49560 16 48 16.68 +12 38 20.6    ~3RC7 20.9 GVNEOCPI52
     C2F4CZ2 KC2020 03 28.05289216 50 02.02 +12 34 19.2    ~3S2b 20.4 GVNEOCPJ95
     C2F4CZ2 KC2020 03 28.07270916 50 05.68 +12 34 10.5    ~3S2b       VNEOCPJ95
     C2F4CZ2  C2020 03 28.07284 16 50 05.53 +12 34 10.5    ~3S2M 20.3 VVNEOCP033
     C2F4CZ2  C2020 03 28.07643 16 50 06.21 +12 34 09.1    ~3S2M 20.4 VVNEOCP033
     C2F4CZ2  C2020 03 28.08001 16 50 06.86 +12 34 07.6    ~3S2M 20.1 VVNEOCP033
     C2F4CZ2  C2020 03 28.12386 16 50 14.90 +12 33 49.0    ~3S3b 20.1 VVNEOCP033
     C2F4CZ2  C2020 03 28.12675 16 50 15.43 +12 33 47.6    ~3S3b 20.2 VVNEOCP033
     C2F4CZ2  C2020 03 28.12963 16 50 15.94 +12 33 46.5    ~3S3b 20.3 VVNEOCP033
     C2F4CZ2 IC2020 03 28OW#forajYdexplanationC/IquSAV=4u3:AJHqH]kjDYdM7B4'UyL01
     C2F4CZ2 KC2020 03 28%dHP`Vrps,E`FgeI83`]W*u1SqF5My:7GDQW+#GE#h0Lw3c.q*)YL01
     C2F4CZ2 KC2020 03 28U)n((bt)-%a#'F)E*qV0R-Cooux/U'W8/t28'7S^sSeVyI'/YYp#L01

Station data:
(033) Karl Schwarzschild Observatory, Tautenburg  (N50.980140 E11.711240)
   Germany. 1.3-m Schmidt.
(G96) Mt. Lemmon Survey  (N32.442754 W110.788720)  US/Arizona.  Observers T.
   A. Pruyne, B. M. Africano, E. J. Christensen, G. A. Farneth, D. C. Fuls,
   A. R. Gibbs, A. D. Grauer, H. Gröller, J. A. Johnson, R. A. Kowalski, S.
   M. Larson, G. J. Leonard, D. Rankin, R. L. Seaman, F. C. Shelly. 1.5-m
   reflector + 10K CCD.
(H21) Astronomical Research Observatory, Westfield  (N39.483057 W87.968270)
   US/Illinois. 0.76-m f/3.0 astrograph + CCD.
(I52) Steward Observatory, Mt. Lemmon Station  (N32.442547 W110.788920)
   US/Arizona.  Observers T. A. Pruyne, B. M. Africano, E. J. Christensen, G.
   A. Farneth, D. C. Fuls, A. R. Gibbs, A. D. Grauer, H. Gröller, J. A.
   Johnson, R. A. Kowalski, S. M. Larson, G. J. Leonard, D. Rankin, R. L.
   Seaman, F. C. Shelly. 1.0-m reflector + CCD.
(I93) St Pardon de Conques  (N44.558710 W0.203000)  France.  Observer F.
   Losse. 0.40-m f/3.7 reflector + CCD.
(J04) ESA Optical Ground Station, Tenerife  (N28.300924 W16.511830)  Canary
   Islands (Spain).  Observer D. Abreu. Measurers M. Micheli, D. Koschny, E.
   Schwab, M. Busch, A. Knöfel. 1.0-m f/4.4 reflector + CCD.
(J95) Great Shefford  (N51.474969 W1.447003)  UK.  Observer P. Birtwhistle.
   0.40-m f/6.0 Schmidt-Cassegrain + CCD.
(L01) Višnjan Observatory, Tičan  (N45.290900 E13.749300)  Croatia.
   Observers K. Korlević, E. Pettarin. Measurer E. Pettarin. 1.0-m f/2.9
   reflector + CCD.

Orbital elements:  C2F4CZ2
   Perihelion 2020 May 9.037719 +/- 0.421 TT =  0:54:18 (JD 2458978.537719)
Epoch 2020 Mar 28.0 TT = JDT 2458936.5   Earth MOID: 0.1970   AutoNEOCP
M 348.77746803 +/- 0.8              (J2000 ecliptic)
n   0.26696339 +/- 0.0182           Peri.  160.87871 +/- 0.7
a   2.38873647 +/- 0.109            Node    79.47138 +/- 0.55
e   0.4979776 +/- 0.0204            Incl.   15.75555 +/- 0.18
P   3.69                   H 20.3   G  0.15   U 10.1  
q 1.19919910 +/- 0.00622    Q 3.57827384 +/- 0.226
From 37 observations 2020 Mar. 25-28; mean residual 0".42
Residuals in arcseconds: 
200325 G96  .04+  .05-    200326 H21  .26-  .25+    200328 J95  .16+  .34+    
200325 G96  .16+  .10+    200327 033  1.1+  .50-    200328 J95  .11+  .02-    
200325 G96  .16-  .15+    200327 033  1.6+  1.7-    200328 033  .48-  .39-    
200325 G96  .01-  .10+    200327 033  .33-  .15-    200328 033  .19-  .26-    
200325 G96  .47+  .26-    200327 033  .56+  .93-    200328 033  .31-  .24-    
200325 G96  .04-  .09-    200327 I93  .21-  .09-    200328 033  .51-  .07-    
200326 033  .17-  .30+    200327 I93  .31+  .23+    200328 033  .52-  .22-    
200326 033  .16-  .29-    200327 I93  .50-  .02-    200328 033  .79-  .08-    
200326 033  .14-  .02+    200327 J95  .07-  .47+    200328 L01  .26+  .14+    
200326 J04  .09+  .28+    200327 J95  .14-  .37-    200328 L01  .38-  .20-    
200326 J04  .01-  .03-    200327 I52  .17+  .09-    200328 L01  .03+  .24-    
200326 H21  .26-  .28+    200327 I52  .34+  .36-    
200326 H21  .12+  .00     200327 I52  .06-  .24-    

Ephemerides (geocentric):
Date (UTC) HH   RA              Dec         delta   r     elong  mag " sig PA
---- -- -- --  -------------   -----------  ------ ------ -----  --- ---- ---
2020 03 28 05  16 50 30.693   +12 33 23.13  .50582 1.2837 113.1 21.1 .213 159
2020 03 28 06  16 50 38.533   +12 33 04.95  .50557 1.2836 113.1 21.1 .207 160
2020 03 28 07  16 50 46.374   +12 32 46.72  .50531 1.2834 113.1 21.1 .201 160
2020 03 28 08  16 50 54.216   +12 32 28.44  .50505 1.2833 113.1 21.1 .195 161
2020 03 28 09  16 51 02.059   +12 32 10.11  .50479 1.2831 113.1 21.1 .189 162
2020 03 28 10  16 51 09.902   +12 31 51.73  .50454 1.2829 113.1 21.1 .182 163
2020 03 28 11  16 51 17.746   +12 31 33.30  .50428 1.2828 113.1 21.1 .175 164
2020 03 28 12  16 51 25.591   +12 31 14.82  .50402 1.2826 113.1 21.1 .168 165
2020 03 28 13  16 51 33.436   +12 30 56.29  .50376 1.2825 113.1 21.1 .161 166
2020 03 28 14  16 51 41.282   +12 30 37.71  .50351 1.2823 113.1 21.1 .154 167
2020 03 28 15  16 51 49.129   +12 30 19.08  .50325 1.2822 113.1 21.1 .147 169
2020 03 28 16  16 51 56.977   +12 30 00.41  .50299 1.2820 113.1 21.1 .139 171
2020 03 28 17  16 52 04.826   +12 29 41.68  .50274 1.2818 113.1 21.1 .131 173
2020 03 28 18  16 52 12.675   +12 29 22.90  .50248 1.2817 113.1 21.1 .123 175
2020 03 28 19  16 52 20.525   +12 29 04.07  .50222 1.2815 113.1 21.1 .116 178
2020 03 28 20  16 52 28.376   +12 28 45.19  .50197 1.2814 113.1 21.1 .108   1
2020 03 28 21  16 52 36.227   +12 28 26.27  .50171 1.2812 113.1 21.1 .101   5
2020 03 28 22  16 52 44.079   +12 28 07.29  .50146 1.2811 113.1 21.1 .094  10
2020 03 28 23  16 52 51.932   +12 27 48.26  .50120 1.2809 113.1 21.1 .087  16
2020 03 29 00  16 52 59.786   +12 27 29.18  .50095 1.2807 113.1 21.1 .082  22
2020 03 29 01  16 53 07.640   +12 27 10.05  .50069 1.2806 113.1 21.1 .077  30
2020 03 29 02  16 53 15.496   +12 26 50.87  .50043 1.2804 113.1 21.1 .074  39
2020 03 29 03  16 53 23.352   +12 26 31.64  .50018 1.2803 113.1 21.1 .073  48
2020 03 29 04  16 53 31.208   +12 26 12.35  .49992 1.2801 113.1 21.1 .074  58
2020 03 29 05  16 53 39.066   +12 25 53.02  .49967 1.2800 113.1 21.1 .077  68
2020 03 29 06  16 53 46.924   +12 25 33.64  .49942 1.2798 113.1 21.1 .082  76
2020 03 29 07  16 53 54.783   +12 25 14.20  .49916 1.2796 113.1 21.1 .089  84
2020 03 29 08  16 54 02.642   +12 24 54.71  .49891 1.2795 113.1 21.1 .098  91
2020 03 29 09  16 54 10.503   +12 24 35.18  .49865 1.2793 113.1 21.1 .108  96
2020 03 29 10  16 54 18.364   +12 24 15.59  .49840 1.2792 113.1 21.1 .119 101
2020 03 29 11  16 54 26.226   +12 23 55.95  .49814 1.2790 113.1 21.1 .131 105
2020 03 29 12  16 54 34.089   +12 23 36.25  .49789 1.2789 113.1 21.1 .144 108
2020 03 29 13  16 54 41.952   +12 23 16.51  .49764 1.2787 113.1 21.1 .158 111
2020 03 29 14  16 54 49.816   +12 22 56.72  .49738 1.2786 113.1 21.1 .172 114
2020 03 29 15  16 54 57.681   +12 22 36.87  .49713 1.2784 113.1 21.1 .187 116
2020 03 29 16  16 55 05.547   +12 22 16.97  .49688 1.2783 113.1 21.1 .202 118
2020 03 29 17  16 55 13.413   +12 21 57.02  .49662 1.2781 113.1 21.1 .218 119
2020 03 29 18  16 55 21.280   +12 21 37.02  .49637 1.2779 113.1 21.1 .234 121
2020 03 29 19  16 55 29.148   +12 21 16.96  .49612 1.2778 113.1 21.1 .251 122
2020 03 29 20  16 55 37.016   +12 20 56.86  .49587 1.2776 113.1 21.1 .269 123
2020 03 29 21  16 55 44.886   +12 20 36.70  .49561 1.2775 113.1 21.1 .286 124
2020 03 29 22  16 55 52.756   +12 20 16.49  .49536 1.2773 113.1 21.1 .304 125
2020 03 29 23  16 56 00.627   +12 19 56.22  .49511 1.2772 113.1 21.1 .323 125
2020 03 30 00  16 56 08.498   +12 19 35.91  .49486 1.2770 113.1 21.1 .342 126
2020 03 30 01  16 56 16.370   +12 19 15.54  .49461 1.2769 113.1 21.1 .361 127
2020 03 30 02  16 56 24.243   +12 18 55.12  .49435 1.2767 113.1 21.1 .381 127
2020 03 30 03  16 56 32.117   +12 18 34.64  .49410 1.2766 113.1 21.1 .401 128
2020 03 30 04  16 56 39.992   +12 18 14.12  .49385 1.2764 113.1 21.1 .422 128